Regional Weather Roundup
Issued by NWS

Home | Current Version | Previous Version | Graphics & Text | Print | Product List | Glossary On
Versions: 1 2 3 4 5 6 7 8 9 10 11 12 13 14 15 16 17 18 19 20 21 22 23 24 25 26 27 28 29 30 31 32 33 34 35 36 37 38 39 40 41 42 43 44 45 46 47 48 49 50
886
ASUS45 KBOU 100307
RWRCO

WEATHER ROUNDUP FOR COLORADO
NATIONAL WEATHER SERVICE DENVER/BOULDER CO
800 PM MST TUE FEB 09 2016

NOTE: "FAIR" INDICATES FEW OR NO CLOUDS BELOW 12000 FEET WITH NO
SIGNIFICANT WEATHER AND/OR OBSTRUCTIONS TO VISIBILITY.

COZ001>005-013-030-031-100400-
...NORTHWEST COLORADO...

CITY           SKY/WX    TMP DP  RH WIND       PRES   REMARKS
CRAIG          CLOUDY     6   4  91 CALM      30.48S
HAYDEN         CLOUDY    19  10  68 SE5       30.47S WCI  13
MEEKER         CLOUDY    16  12  84 CALM      30.46S
MOUNT WERNER   NOT AVBL
STEAMBOAT SPGS CLOUDY    19  14  80 CALM      30.48S
WALDEN         CLOUDY    12   9  85 SE6       30.46S WCI   3
$$

COZ006>008-011-100400-
...WEST CENTRAL VALLEYS...

CITY           SKY/WX    TMP DP  RH WIND       PRES   REMARKS
GRAND JUNCTION CLOUDY    28  23  81 E6        30.45S WCI  22
MONTROSE       CLOUDY    27  21  78 SE8       30.48S WCI  19
EAGLE          CLEAR     25  18  74 CALM      30.52S
RIFLE          CLOUDY    27  18  69 CALM      30.48R
DELTA          CLOUDY    34  26  74 N5        30.47S WCI  30
NUCLA          CLOUDY    34  25  69 E10       30.47S WCI  26
$$

COZ017>023-064>068-100400-
...SOUTHWEST COLORADO...

CITY           SKY/WX    TMP DP  RH WIND       PRES   REMARKS
DURANGO        CLOUDY    31  19  61 N7        30.41R WCI  24
CORTEZ         CLOUDY    30  22  72 E6        30.39S WCI  24
PAGOSA SPRINGS CLOUDY    28  20  73 CALM      30.44R
TELLURIDE      CLOUDY    31  15  52 CALM      30.51S
WOLF CREEK PAS CLOUDY    27  -2  28 NE16      30.57S WCI  14
$$

COZ009-010-012-014-032>034-037-058>063-100400-
...CENTRAL COLORADO...

CITY           SKY/WX    TMP DP  RH WIND       PRES   REMARKS
ASPEN          CLOUDY    24  16  71 SW8       30.48R WCI  15
BUENA VISTA    CLOUDY    35  12  37 NW6       30.42R WCI  30
COPPER MTN     CLOUDY    28   0  29 W18       30.54R WCI  16
BERTHOUD PASS  FAIR      18   7  62 NW18G25   30.52S WCI   2
COTTONWOOD PAS CLOUDY    39  -6  14 W12G20    30.47S
GUNNISON       CLOUDY     7  -2  66 NE7       30.55S WCI  -5
KREMMLING      CLOUDY     5   1  85 CALM      30.53S
LEADVILLE      CLOUDY    21   3  45 NE8       30.48S WCI  11
MONARCH PASS   CLOUDY    28   1  31 NW9       30.64S WCI  20
SALIDA         NOT AVBL
SUNLIGHT       CLOUDY    32  12  43 N5        30.55  WCI  27
WILKERSON PASS CLOUDY    30  -4  22 N10G20    30.51S WCI  21
$$

COZ069>075-100400-
...SAN LUIS VALLEY/SANGRE DE CRISTO MOUNTAINS...

CITY           SKY/WX    TMP DP  RH WIND       PRES   REMARKS
ALAMOSA        CLOUDY    29  22  75 NW6       30.42S WCI  23
LA VETA PASS   CLOUDY    30  14  51 MISG      30.46R
SAGUACHE       CLOUDY    28  19  69 CALM      30.45R
$$

COZ035-036-038>040-100400-
...NORTHERN COLORADO FRONT RANGE...

CITY           SKY/WX    TMP DP  RH WIND       PRES   REMARKS
DENVER INTL AP CLEAR     40  21  46 SW16      30.27F
DMNS CITY PARK   N/A     44  17  34 SW8       30.28S
AURORA         NOT AVBL
FRONT RANGE AP PTCLDY    41  21  45 MISG      30.28F
ERIE MUNI ARPT CLEAR     35  25  65 SW6       30.26F WCI  30
BOULDER MUN AP CLEAR     39  23  52 CALM      30.26S
CENTENNIAL     CLOUDY    38  21  50 S9        30.29F
BROOMFIELD     CLEAR     41  18  38 SW5       30.28F
FORT COLLINS   CLEAR     41  21  45 SW5       30.26F
LONGMONT       CLEAR     36  25  63 CALM      30.28F
$$

COZ041-046-047-076>085-087-088-100400-
...PIKES PEAK/PALMER DIVIDE AND SOUTHERN FOOTHILLS...

CITY           SKY/WX    TMP DP  RH WIND       PRES   REMARKS
COLO. SPRINGS  CLOUDY    35  20  54 CALM      30.35S
A. F. ACADEMY  CLOUDY    27  18  68 NE6G20    30.34S WCI  21
SCHRIEVER AFB  FAIR      36  19  49 SW5       30.34F
ELLICOTT       NOT AVBL
FALCON         NOT AVBL
FORT CARSON    NOT AVBL
LIMON          CLEAR     31  23  72 W12       30.29S WCI  22
MONUMENT HILL  CLOUDY    32  16  51 SW10      30.35S WCI  24
TRINIDAD       CLOUDY    30  15  53 W8        30.36S WCI  22
$$

COZ042>045-048>051-090-091-100400-
...NORTHEAST COLORADO...

CITY           SKY/WX    TMP DP  RH WIND       PRES   REMARKS
GREELEY ARPT   CLEAR     30  25  80 CALM      30.26F
AKRON          CLEAR     39  28  64 W14       30.22F
BURLINGTON     CLEAR     33  27  78 SW9       30.24F WCI  25
WRAY           CLEAR     36  31  80 W10       30.20S
STERLING       CLEAR     36  30  80 NW5       30.21S
HOLYOKE        CLEAR     41  32  70 W12G17    30.18F
FORT MORGAN    CLEAR     33  26  77 W10       30.26S WCI  24
$$

COZ086-089-092>099-100400-
...SOUTHEAST COLORADO...

CITY           SKY/WX    TMP DP  RH WIND       PRES   REMARKS
PUEBLO         CLEAR     35  24  64 CALM      30.32R
LA JUNTA       CLEAR     42  25  50 SW9G22    30.30S
LAMAR          CLEAR     33  25  72 SW7       30.27S WCI  27
SPRINGFIELD      N/A     31  23  72 W5        30.30F WCI  26
$$




USA.gov is the U.S. government's official web portal to all federal, state and local government web resources and services.